sat.trackr.live / text

‹ back to catalog

GSAT0217 (GALILEO 21)

NORAD 43057 · 2017-079C

PAYLOAD ACTIVE UNKNOWN

§ Identity

Operator
Country
ESA
Launch date
2017-12-12
Launch site
FRGUI
Launch vehicle
Mass (kg)
RCS (m²)

Purposes: earth_obs, nav

External: N2YO · Heavens-Above · Gunter

§ Orbital elements

Epoch: 2026-05-23T21:23:11.066784Z

Period
844.70 min
Inclination
55.0789°
Eccentricity
0.0003554
Mean motion
1.70474769 rev/d
Perigee alt
23,211.6 km
Apogee alt
23,232.6 km
Semi-major
29,600.2 km
B*
0.0000e+0
RAAN
222.1733°
Arg perigee
287.2747°
Mean anomaly
72.7400°
Rev number
5,257

§ Raw data

GSAT0217 (GALILEO 21)1 43057U 17079C   26143.89110031 -.00000014  00000+0  00000+0 0  99962 43057  55.0789 222.1733 0003554 287.2747  72.7400  1.70474769 52573

JSON: /api/v1/satellites/43057 · /tle

For live sub-satellite position, see the globe view (requires WebGL).

§ Visibility from observer

Set your observer location to see the next 7 days of passes ≥ 10°. The values pass through the URL so the page stays shareable.

No JS? Fill the form by hand. The geolocation button needs JavaScript.